This is the latest recevied weather packets stored in our database for station/object KG4IFE-13. If no packets are shown the sender has not sent any weather packets the latest 10 day(s).
| Time | Temp. | Humidity | Pressure | Rain* | Wind** | Luminosity | Snow |
|---|---|---|---|---|---|---|---|
| 1777603777 | 11.11° C | 56% | 1015.4 hPa | - | - | - | - |
| 1777602571 | 11.67° C | 56% | 1015.2 hPa | - | - | - | - |
| 1777601668 | 11.67° C | 56% | 1015.1 hPa | - | - | - | - |
| 1777601387 | 12.22° C | 55% | 1015 hPa | - | - | - | - |
| 1777600463 | 12.22° C | 55% | 1014.7 hPa | - | - | - | - |
| 1777598979 | 12.78° C | 53% | 1014.1 hPa | - | - | - | - |
| 1777598056 | 13.33° C | 53% | 1013.9 hPa | - | - | - | - |
| 1777597755 | 13.33° C | 52% | 1013.7 hPa | - | - | - | - |
| 1777597474 | 13.33° C | 52% | 1013.7 hPa | - | - | - | - |
| 1777595349 | 14.44° C | 48% | 1012.9 hPa | - | - | - | - |
| 1777589066 | 17.22° C | 44% | 1011.9 hPa | - | - | - | - |
| 1777587522 | 17.78° C | 43% | 1011.7 hPa | - | - | - | - |
| 1777586619 | 18.33° C | 42% | 1011.7 hPa | - | - | - | - |
| 1777586017 | 18.33° C | 41% | 1011.4 hPa | - | - | - | - |
| 1777582125 | 20.56° C | 38% | 1011.1 hPa | - | - | - | - |
| 1777581802 | 20.56° C | 38% | 1011.1 hPa | - | - | - | - |
| 1777581521 | 20.56° C | 38% | 1011.1 hPa | - | - | - | - |
| 1777580598 | 20.56° C | 42% | 1010.9 hPa | - | - | - | - |
| 1777579696 | 20° C | 42% | 1010.9 hPa | - | - | - | - |
| 1777579396 | 20° C | 41% | 1010.8 hPa | - | - | - | - |
| 1777578792 | 20.56° C | 44% | 1010.8 hPa | - | - | - | - |
| 1777578492 | 20.56° C | 44% | 1010.8 hPa | - | - | - | - |
| 1777576406 | 20° C | 43% | 1010.6 hPa | - | - | - | - |
| 1777574879 | 20.56° C | 44% | 1010.6 hPa | - | - | - | - |
| 1777570667 | 19.44° C | 51% | 1010.9 hPa | - | - | - | - |
* Rain since midnight (hover to see other rain measurements)
** Current wind speed in m/s (hover to see current wind gust speed)